Regional Weather Roundup
Issued by NWS Spokane, WA

Home | Current Version | Previous Version | Text Only | Print | Product List | Glossary On
Versions: 1 2 3 4 5 6 7 8 9 10 11 12 13 14 15 16 17 18 19 20 21 22 23 24 25 26 27 28 29 30 31 32 33 34 35 36 37 38 39 40 41 42 43 44 45 46 47 48 49 50
439
NZUS01 KOTX 291325
RWROTX

Eastern Washington/Northern Idaho Roundup
National Weather Service, Spokane WA
600 AM PDT THU JUN 29 2017

Note: "fair" indicated few or no clouds below 12,000 feet with no
significant weather and/or obstructions to visibility.

...Northeast Washington and Northern Idaho Panhandle...

CITY           SKY/WX    TMP DP  RH WIND       PRES   REMARKS
Spokane Intl   FOG       51  51 100 NE7       30.04R VSB 1/2
Spokane Downto PTCLDY    53  51  93 NE3       30.04R
Coeur d Alene  CLOUDY    53  51  93 NE9       30.04R
Deer Park      CLEAR     51  47  86 NE8       30.05R
Sandpoint      CLEAR     52  50  93 CALM      30.06R
Bonners Ferry  FOG       50  50 100 CALM      30.08R VSB 1/4

...Southeast Washington and southern Idaho Panhandle...

CITY           SKY/WX    TMP DP  RH WIND       PRES   REMARKS
Walla Walla    CLEAR     60  45  57 S10       30.03R
Pullman/Moscow CLEAR     51  49  92 CALM      30.04R
Lewiston       CLEAR     60  50  69 S5        30.01R
Lowell           N/A     57  49  74 CALM      30.02
Grangeville    CLOUDY    54  50  87 CALM      30.04R

...Columbia Basin...

CITY           SKY/WX    TMP DP  RH WIND       PRES   REMARKS
Ephrata        CLEAR     62  43  49 NW7       30.02R
Moses Lake     CLEAR     57  47  69 CALM      30.03R
Pasco          CLEAR     57  51  80 CALM      30.02R
Richland       SUNNY     61  50  66 W3        30.03R
Hermiston      CLEAR     57  46  66 W3        30.03R
Pendleton      CLEAR     55  44  66 S6        30.05R

...East Slopes Cascades...

CITY           SKY/WX    TMP DP  RH WIND       PRES   REMARKS
The Dalles     CLEAR     56  48  74 VRB5      30.06R
Yakima         CLEAR     57  45  64 W7        30.06R
Ellensburg     CLEAR     53  44  71 N6        30.07R
Stampede Pass  FOG       46  46 100 VRB3      30.14R VSB<1/4
Wenatchee      CLEAR     57  47  69 W5        30.05R
Omak           CLEAR     56  47  71 N9        30.06R
Sunnyside      SUNNY     51  47  86 CALM      30.05R

...Southern British Columbia...

CITY           SKY/WX    TMP DP  RH WIND       PRES   REMARKS
Penticton      CLEAR     52  50  93 N6        30.09R
Castlegar      CLEAR     48  45  87 VRB2      30.10
Cranbrook      MOSUNNY   54  39  58 W7        30.09R
Osoyoos          N/A     55  50  82 E1          N/A
Creston          N/A     52  46  82 E3          N/A

...Western Montana...

CITY           SKY/WX    TMP DP  RH WIND       PRES   REMARKS
Kalispell      CLOUDY    58  47  66 N10       30.03R
Missoula       CLOUDY    58  44  60 SE6       30.04R

...Neighboring Cities...

CITY           SKY/WX    TMP DP  RH WIND       PRES   REMARKS
Seattle        MOCLDY    54  50  86 S3        30.14R
Portland       MOCLDY    57  50  77 N3        30.13R
Boise          CLEAR     56  38  50 CALM      30.00R
Great Falls    CLOUDY    53  45  74 NW6       30.09R
Calgary        PTSUNNY   54  46  76 N12       30.10R



USA.gov is the U.S. government's official web portal to all federal, state and local government web resources and services.